Helena, Arkansas, United States (72342)
Lat: 34.53N, Lon: 90.59W
Wx Zone: ARZ058
Local Info
Past Weather Observations for Tuesday, July 22, 2014

NOTE: This archive is for the closest National Weather Service station to Helena. Information may differ from the station used for current weather conditions.

Click here for Long-term Archive

Time Weather Temperature Dewpoint Humidity Pressure Winds Precip Visibility
23:55
Clear
73°F / 23°C 72°F / 22°C 94% 30.06 in
(1018 mb)
NNW 4.6 mph
(NNW 7 kph)
- 7SM
23:35
Clear
75°F / 24°C 72°F / 22°C 89% 30.06 in
(1018 mb)
NNW 5.8 mph
(NNW 9 kph)
- 10SM
23:15
Clear
75°F / 24°C 72°F / 22°C 89% 30.09 in
(1019 mb)
NW 3.5 mph
(NW 6 kph)
- 10SM
22:55
Partly Cloudy
77°F / 25°C 72°F / 22°C 83% 30.09 in
(1019 mb)
NW 3.5 mph
(NW 6 kph)
- 7SM
22:35
Mostly Cloudy
77°F / 25°C 72°F / 22°C 83% 30.09 in
(1019 mb)
Calm - 10SM
22:15
Partly Cloudy
77°F / 25°C 72°F / 22°C 83% 30.09 in
(1019 mb)
Calm - 10SM
21:55
Clear
77°F / 25°C 72°F / 22°C 83% 30.09 in
(1019 mb)
Calm - 10SM
21:35
Clear
77°F / 25°C 72°F / 22°C 83% 30.06 in
(1018 mb)
Calm - 10SM
21:15
Clear
79°F / 26°C 72°F / 22°C 79% 30.06 in
(1018 mb)
Calm - 10SM
20:55
Clear
77°F / 25°C 72°F / 22°C 83% 30.06 in
(1018 mb)
Calm - 10SM
20:35
Clear
79°F / 26°C 72°F / 22°C 79% 30.06 in
(1018 mb)
Calm - 10SM
20:15
Clear
77°F / 25°C 72°F / 22°C 83% 30.06 in
(1018 mb)
Calm - 10SM
19:55
Clear
81°F / 27°C 72°F / 22°C 74% 30.06 in
(1018 mb)
NW 4.6 mph
(NW 7 kph)
- 10SM
19:35
Clear
81°F / 27°C 72°F / 22°C 74% 30.04 in
(1017 mb)
NW 4.6 mph
(NW 7 kph)
- 10SM
19:15
Clear
81°F / 27°C 72°F / 22°C 74% 30.04 in
(1017 mb)
NW 3.5 mph
(NW 6 kph)
- 10SM
18:35
Clear
82°F / 28°C 72°F / 22°C 70% 30.04 in
(1017 mb)
NW 4.6 mph
(NW 7 kph)
- 10SM
18:15
Clear
86°F / 30°C 70°F / 21°C 59% 30.04 in
(1017 mb)
WNW 4.6 mph
(WNW 7 kph)
- 10SM
17:55
Clear
86°F / 30°C 70°F / 21°C 59% 30.04 in
(1017 mb)
NW 4.6 mph
(NW 7 kph)
- 10SM
17:35
Clear
86°F / 30°C 70°F / 21°C 59% 30.04 in
(1017 mb)
WNW 5.8 mph
(WNW 9 kph)
- 10SM
17:15
Clear
88°F / 31°C 70°F / 21°C 55% 30.04 in
(1017 mb)
NW 8.1 mph
(NW 13 kph)
- 10SM
16:55
Clear
88°F / 31°C 70°F / 21°C 55% 30.04 in
(1017 mb)
NW 5.8 mph
(NW 9 kph)
- 10SM
16:35
Clear
88°F / 31°C 70°F / 21°C 55% 30.04 in
(1017 mb)
N 3.5 mph
(N 6 kph)
- 10SM
16:15
Clear
88°F / 31°C 70°F / 21°C 55% 30.04 in
(1017 mb)
N 3.5 mph
(N 6 kph)
- 10SM
15:55
Clear
88°F / 31°C 70°F / 21°C 55% 30.04 in
(1017 mb)
NW 5.8 mph
(NW 9 kph)
- 10SM
15:35
Clear
88°F / 31°C 70°F / 21°C 55% 30.06 in
(1018 mb)
NNW 3.5 mph
(NNW 6 kph)
- 10SM
15:15
Clear
88°F / 31°C 70°F / 21°C 55% 30.06 in
(1018 mb)
NW 3.5 mph
(NW 6 kph)
- 10SM
14:55
Partly Cloudy
88°F / 31°C 70°F / 21°C 55% 30.06 in
(1018 mb)
WNW 5.8 mph
(WNW 9 kph)
- 10SM
14:35
Partly Cloudy
88°F / 31°C 70°F / 21°C 55% 30.06 in
(1018 mb)
NW 4.6 mph
(NW 7 kph)
- 10SM
14:15
Partly Cloudy
88°F / 31°C 70°F / 21°C 55% 30.06 in
(1018 mb)
Calm - 10SM
13:55
Mostly Cloudy
86°F / 30°C 70°F / 21°C 59% 30.06 in
(1018 mb)
N 3.5 mph
(N 6 kph)
- 10SM
13:35
Partly Cloudy
86°F / 30°C 70°F / 21°C 59% 30.09 in
(1019 mb)
Calm - 10SM
13:15
Partly Cloudy
88°F / 31°C 70°F / 21°C 55% 30.09 in
(1019 mb)
NW 4.6 mph
(NW 7 kph)
- 10SM
12:55
Partly Cloudy
86°F / 30°C 72°F / 22°C 62% 30.09 in
(1019 mb)
NW 8.1 mph
(NW 13 kph)
- 10SM
12:35
Mostly Cloudy
86°F / 30°C 70°F / 21°C 59% 30.09 in
(1019 mb)
NNW 5.8 mph
(NNW 9 kph)
- 10SM
12:15
Partly Cloudy
86°F / 30°C 70°F / 21°C 59% 30.09 in
(1019 mb)
NNW 3.5 mph
(NNW 6 kph)
- 10SM
11:55
Partly Cloudy
86°F / 30°C 70°F / 21°C 59% 30.09 in
(1019 mb)
Calm - 10SM
11:35
Clear
86°F / 30°C 68°F / 20°C 55% 30.09 in
(1019 mb)
Calm - 10SM
11:15
Clear
84°F / 29°C 70°F / 21°C 62% 30.09 in
(1019 mb)
Calm - 10SM
10:55
Clear
86°F / 30°C 70°F / 21°C 59% 30.09 in
(1019 mb)
Calm - 10SM
10:35
Clear
84°F / 29°C 70°F / 21°C 62% 30.09 in
(1019 mb)
Calm - 10SM
10:15
Clear
82°F / 28°C 70°F / 21°C 66% 30.09 in
(1019 mb)
Calm - 10SM
09:55
Clear
82°F / 28°C 70°F / 21°C 66% 30.09 in
(1019 mb)
Calm - 10SM
09:35
Clear
82°F / 28°C 70°F / 21°C 66% 30.09 in
(1019 mb)
ENE 3.5 mph
(ENE 6 kph)
- 10SM
09:15
Clear
82°F / 28°C 70°F / 21°C 66% 30.09 in
(1019 mb)
NE 4.6 mph
(NE 7 kph)
- 10SM
08:55
Clear
81°F / 27°C 70°F / 21°C 70% 30.09 in
(1019 mb)
NE 3.5 mph
(NE 6 kph)
- 10SM
08:35
Clear
81°F / 27°C 70°F / 21°C 70% 30.09 in
(1019 mb)
E 5.8 mph
(E 9 kph)
- 10SM
08:15
Clear
79°F / 26°C 70°F / 21°C 74% 30.09 in
(1019 mb)
E 4.6 mph
(E 7 kph)
- 10SM
07:55
Clear
79°F / 26°C 70°F / 21°C 74% 30.09 in
(1019 mb)
ENE 4.6 mph
(ENE 7 kph)
- 10SM
07:35
Clear
77°F / 25°C 70°F / 21°C 79% 30.09 in
(1019 mb)
NE 3.5 mph
(NE 6 kph)
- 7SM
07:15
Clear
75°F / 24°C 70°F / 21°C 83% 30.09 in
(1019 mb)
NNE 3.5 mph
(NNE 6 kph)
- 7SM
06:55
Clear
Fog And Mist
73°F / 23°C 70°F / 21°C 89% 30.09 in
(1019 mb)
NE 3.5 mph
(NE 6 kph)
- 5SM
06:35
Clear
Fog And Mist
72°F / 22°C 70°F / 21°C 94% 30.09 in
(1019 mb)
Calm - 4SM
06:15
Fog And Mist
70°F / 21°C 70°F / 21°C 100% 30.09 in
(1019 mb)
Calm - 2SM
05:55
Obscured
Fog And Mist
70°F / 21°C 68°F / 20°C 94% 30.09 in
(1019 mb)
Calm - 1 1/2SM
05:35
Obscured
Fog And Mist
66°F / 19°C 64°F / 18°C 94% 30.09 in
(1019 mb)
N 3.5 mph
(N 6 kph)
- 1 3/4SM
05:15
Obscured
Fog And Mist
68°F / 20°C 66°F / 19°C 94% 30.09 in
(1019 mb)
NNW 3.5 mph
(NNW 6 kph)
- 3/4SM
04:55
Clear
Fog And Mist
68°F / 20°C 64°F / 18°C 88% 30.09 in
(1019 mb)
Calm - 3SM
04:35
Clear
Fog And Mist
68°F / 20°C 66°F / 19°C 94% 30.09 in
(1019 mb)
Calm - 3SM
04:15
Clear
Fog And Mist
68°F / 20°C 66°F / 19°C 94% 30.09 in
(1019 mb)
NNW 3.5 mph
(NNW 6 kph)
- 5SM
03:55
Clear
68°F / 20°C 64°F / 18°C 88% 30.09 in
(1019 mb)
Calm - 7SM
03:35
Clear
Fog And Mist
68°F / 20°C 64°F / 18°C 88% 30.09 in
(1019 mb)
NNW 3.5 mph
(NNW 6 kph)
- 5SM
03:15
Clear
68°F / 20°C 66°F / 19°C 94% 30.06 in
(1018 mb)
Calm - 7SM
02:55
Clear
Fog And Mist
70°F / 21°C 68°F / 20°C 94% 30.06 in
(1018 mb)
Calm - 2SM
02:35
Clear
68°F / 20°C 66°F / 19°C 94% 30.06 in
(1018 mb)
Calm - 7SM
02:15
Clear
68°F / 20°C 66°F / 19°C 94% 30.06 in
(1018 mb)
NNW 3.5 mph
(NNW 6 kph)
- 7SM
01:55
Clear
Fog And Mist
68°F / 20°C 68°F / 20°C 100% 30.06 in
(1018 mb)
Calm - 5SM
01:35
Clear
Fog And Mist
70°F / 21°C 68°F / 20°C 94% 30.06 in
(1018 mb)
Calm - 5SM
01:15
Clear
Fog And Mist
70°F / 21°C 68°F / 20°C 94% 30.06 in
(1018 mb)
Calm - 5SM
00:55
Clear
70°F / 21°C 68°F / 20°C 94% 30.06 in
(1018 mb)
Calm - 7SM
00:35
Clear
70°F / 21°C 68°F / 20°C 94% 30.06 in
(1018 mb)
Calm - 7SM
00:15
Clear
70°F / 21°C 66°F / 19°C 88% 30.06 in
(1018 mb)
Calm - 10SM
Time Weather Temperature Dewpoint Humidity Pressure Winds Precip Visibility


Weather for websites

WeatherForYou.com, LLC is not responsible for any damages or problems caused by this service. Current weather conditions are obtained from the closest station including government and personal stations which may have varying degrees of accuracy. Weather forecasts are derived from the NOAA NDFD. Like all things, this site belongs to Jesus Christ... He just trusts me to maintain it. If you have any questions or comments email webmaster@weatherforyou.com

Copyright © 2014, WeatherForYou.com LLC. All rights reserved.